Showing default

GOES 18, 51850

Orbit data source: Space-Track

GOES 18, 51850 is a payload satellite owned by NOAA (US) in GEO that was launched on Tue, 01 Mar 2022 UTC via an ATLAS V 541 launch vehicle from the Air Force Eastern Test Range (AFETR). Payload-class satellites include a variety of spacecraft equipped with specific instruments for various scientific and technological missions. These include communications satellites like Starlink; space stations such as the ISS; scientific satellites like the Hubble; Earth observation satellites from companies like Planet Labs, Umbra, and HawkEye 360; GPS; miniature CubeSats for education and research; and military/defense satellites.

Loading next visibility...
Identifier
51850, 2022-021A
Orbit
GEO
Country
Flag of USUS
Related business
Manufacturer
LMCSS
Mission
Operational Civil Weather
Bus & Motor
A2100, LEROS-1C
Mass
5,209 kg wet, 2,857 kg dry
Launch date (UTC)
2022-03-01 (4 years ago)
Launch vehicle
ATLAS V 541
Launch site
Air Force Eastern Test Range (AFETR)
Object type
Payload
Rocket body
Debris
Shape & HBR
Box + 1 Pan + 1 Rod, 20.0 m
Radar Cross Section
37.561 m², Large (>1 m²)

Expand to show TLE details & history
Last TLE update: 15 hours ago

TLE from 15 hours ago
0 GOES 18
1 51850U 22021A   26074.01225098  .00000096  00000-0  00000-0 0  9997
2 51850   0.0356  39.0500 0000827  24.7142 336.2554  1.00272979  5649
Epoch: 2026-03-15T00:17Z
TLE epoch observation values (Epoch: 2026-03-15T00:17:38.484Z)
Latitude
-0.02026°
Longitude
-137.00262°
Altitude
35,782.571 km
Speed
3.075 km/s
True Right ascension
02h 40m 07s
True Declination
0° 01' 13"
Sunlit
Object was in daylight at epoch
Visualization orbit readout
Latitude
Unknown
Longitude
Unknown
Altitude
Unknown
Speed
Unknown
Apparent Right ascension
Unknown
Apparent Declination
Unknown
Sunlit
N/A
Visualization observer readout
Local Sidereal Time
19:47:47
Azimuth
Unknown
Elevation
Unknown
Doppler factor
Unknown
Orbital elements
Apogee altitude
35,790.818 km
Perigee altitude
35,783.844 km
Semi-major axis
42,165.468 km
Eccentricity
0.00008
Inclination
0.0356°
RAAN
39.05°
Arg. of periapsis
24.7142°
True anomaly
336.25158°
Mean anomaly
336.2554°
Eccentric anomaly
336.25349°
Mean motion
0.25067 °/min
Orbital period
1,436.13 mins
BSTAR
0
Loading maneuver chart data...
Computing Atmospheric mass density...
Loading historical data...
Loading historical data...
Loading historical data...
Loading historical data...
Loading historical data...
Loading historical data...
Loading historical data...
Other satellites on launch #21 in the year 2022 (2022-03-01 UTC)

Documentation

Showing up to 5 results
|